Location: Anglesey
(53.1800°N, 4.2200°W)
Time: 23:19:11
(UTC+00:00)

Tiangong 2 - Pass Details

Date: 16 October 2017
Orbit: 386 x 390 km, 42.8° (Epoch: 12 December)

Event Time Altitude Azimuth Distance (km) Brightness Sun altitude
Exits shadow 06:39:05 - 223° (SW) 1,571 3.8 -10.7°
Reaches altitude 10° 06:40:08 10° 206° (SSW) 1,421 3.7 -10.5°
Maximum altitude 06:40:48 11° 194° (SSW) 1,392 3.8 -10.4°
Drops below altitude 10° 06:41:28 10° 182° (S) 1,421 3.9 -10.3°
Sets 06:45:03 0° 140° (SE) 2,275 5.6 -9.8°
